This is the latest recevied weather packets stored in our database for station/object LX0WX-13. If no packets are shown the sender has not sent any weather packets the latest 10 day(s).
| Time | Temp. | Humidity | Pressure | Rain* | Wind** | Luminosity | Snow |
|---|---|---|---|---|---|---|---|
| 1777722362 | 24.44° C | 35% | 1015.7 hPa | 0 mm | - | - | - |
| 1777722062 | 23.89° C | 36% | 1015.8 hPa | 0 mm | - | - | - |
| 1777721762 | 24.44° C | 35% | 1015.8 hPa | 0 mm | - | - | - |
| 1777721462 | 23.89° C | 36% | 1015.7 hPa | 0 mm | - | - | - |
| 1777721162 | 24.44° C | 33% | 1015.9 hPa | 0 mm | - | - | - |
| 1777720862 | 24.44° C | 35% | 1016 hPa | 0 mm | - | - | - |
| 1777720562 | 24.44° C | 36% | 1016 hPa | 0 mm | - | - | - |
| 1777720262 | 23.89° C | 37% | 1016 hPa | 0 mm | - | - | - |
| 1777719962 | 23.89° C | 37% | 1016.1 hPa | 0 mm | - | - | - |
| 1777719662 | 23.33° C | 38% | 1016.1 hPa | 0 mm | - | - | - |
| 1777719362 | 22.78° C | 38% | 1016.2 hPa | 0 mm | - | - | - |
| 1777719062 | 22.22° C | 39% | 1016.1 hPa | 0 mm | - | - | - |
| 1777718762 | 22.22° C | 38% | 1016.4 hPa | 0 mm | - | - | - |
| 1777718462 | 22.22° C | 37% | 1016.3 hPa | 0 mm | - | - | - |
| 1777718162 | 22.78° C | 37% | 1016.3 hPa | 0 mm | - | - | - |
| 1777717862 | 23.33° C | 38% | 1016.4 hPa | 0 mm | - | - | - |
| 1777717562 | 22.22° C | 40% | 1016.5 hPa | 0 mm | - | - | - |
| 1777717262 | 21.11° C | 39% | 1016.4 hPa | 0 mm | - | - | - |
| 1777716962 | 21.67° C | 38% | 1016.5 hPa | 0 mm | - | - | - |
| 1777716662 | 21.67° C | 37% | 1016.3 hPa | 0 mm | - | - | - |
| 1777716362 | 22.22° C | 37% | 1016.4 hPa | 0 mm | - | - | - |
| 1777716062 | 22.22° C | 37% | 1016.5 hPa | 0 mm | - | - | - |
| 1777715762 | 22.22° C | 38% | 1016.7 hPa | 0 mm | - | - | - |
| 1777715462 | 22.22° C | 38% | 1016.5 hPa | 0 mm | - | - | - |
| 1777715162 | 21.67° C | 39% | 1016.7 hPa | 0 mm | - | - | - |
* Rain latest hour (hover to see other rain measurements)
** Current wind speed in m/s (hover to see current wind gust speed)